weather.gov     
National Weather Service

Terminal Aerodrome Forecast
NWS Homepage
This page is being discontinued on March 12, 2014.
The same data is available at this site. Please update your bookmarks.
Thank you, and we apologize for the inconvenience.
Please send an email to SR-SRH.Webmaster@noaa.gov with any concerns.


Current Version
Previous Version:    01  02  03  04  05  06  07  08  09  10  11  12  13  14  15  16  17  18  19  20  21  22  23  24  25  26  27  28  29  30  
   31  32  33  34  35  
[Printable]
307
FTUS44 KTSA 170100 AAB
TAFXNA
TAF AMD
KXNA 170106Z 1701/1724 18003KT P6SM FEW029
     FM170500 14002KT 4SM BR BKN050
     FM170900 00000KT 2SM BR OVC025
      TEMPO 1709/1712 1/2SM FG BKN001
     FM171500 20005KT P6SM BKN015
     FM171800 21007KT P6SM BKN050=


U.S. Dept. of Commerce
NOAA National Weather Service
1325 East West Highway
Silver Spring, MD 20910
E-mail: w-nws.webmaster@noaa.gov
Page last modified: May 16, 2007
NATIONAL WEATHER SERVICE: for Safety, for Work, for Fun - FOR LIFE